Regional Weather Roundup
Issued by NWS Newport/Morehead, NC

Current Version | Previous Version | Text Only | Print | Product List | Glossary On
Versions: 1 2 3 4 5 6 7 8 9 10 11 12 13 14 15 16 17 18 19 20 21 22 23 24 25 26 27 28 29 30 31 32 33 34 35 36 37 38 39 40 41 42 43 44 45 46 47 48 49 50
000 ASUS42 KMHX 232013 RWRMHX WEATHER ROUNDUP FOR EASTERN NORTH CAROLINA NATIONAL WEATHER SERVICE NEWPORT/MOREHEAD CITY NC 400 PM EDT MON APR 23 2018 NOTE: "FAIR" INDICATES FEW OR NO CLOUDS BELOW 12,000 FEET WITH NO SIGNIFICANT WEATHER AND/OR OBSTRUCTIONS TO VISIBILITY NCZ015>017-031-032-045>047-102-103-232100- NORTH COAST CITY SKY/WX TMP DP RH WIND PRES REMARKS EDENTON CLOUDY 65 52 63 E16G23 30.34F ELIZABETH CITY FAIR 65 46 50 E20G28 30.36F KITTY HAWK FAIR 59 48 67 E6 30.36F MANTEO FAIR 62 46 55 E14G21 30.37F $$ NCZ045>047-081-094-103-104-232100- CENTRAL COAST CITY SKY/WX TMP DP RH WIND PRES REMARKS FRISCO CLOUDY 66 52 60 E13 30.35F $$ NCZ095-097-098-100-101-232100- SOUTHERN COAST CITY SKY/WX TMP DP RH WIND PRES REMARKS BEAUFORT FAIR 66 55 67 E10G20 30.30F CEDAR ISLAND NOT AVBL JACKSONVILLE LGT RAIN 67 52 58 E18G29 30.26F PINEY ISLAND NOT AVBL WILMINGTON CLOUDY 65 53 65 E14G23 30.24F $$ NCZ011>013-027>030-043-044-078>080-089-090>093-098-232100- COASTAL PLAIN CITY SKY/WX TMP DP RH WIND PRES REMARKS AHOSKIE FAIR 66 48 50 SE13G24 30.32F CLINTON FAIR 64 55 71 E7G18 30.24F ELIZABETHTOWN CLOUDY 63 56 78 MISG 30.22F GOLDSBORO LGT RAIN 66 52 59 SE15G22 30.24F GREENVILLE FAIR 70 50 49 SE22G29 30.30F HAVELOCK CLOUDY 69 54 58 E17G26 30.31F KENANSVILLE CLOUDY 64 54 68 E12G20 30.26S KINSTON PTSUNNY 68 50 52 E17G25 30.28F NEW BERN FAIR 66 51 58 E10G22 30.30F RICHLANDS LGT RAIN 66 52 60 E15G22 30.26F ROCKY MOUNT CLOUDY 67 49 52 SE10G24 30.28F WASHINGTON PTSUNNY 67 51 55 SE23 30.31F WHITEVILLE RAIN 61 58 89 E13G18 30.19F $$ AMZ130-135-150-152-154-156-158-170-250-252-270-ANZ085-086-088-633-658-670-232100- MARINE OBSERVATIONS STATION/POSITION TIME TEMP WIND PRES WAVE SWELL AIR SEA DIR/SP/G HT/PER HT/PER (UTC) (F) (DEG/KT/KT) (MB) (FT/S) (FT/S) CHESAPEAKE LIGHT NOT AVBL 64 E VA BEACH 1950 54 51 80/ 12/ 14 1029.9 3/ 5 2/ 7 DUCK 1936 56 54 80/ 16/ 18 1028.4 2 E DUCK 1930 54 N/A 3/ 4 OREGON INLET 1936 59 59 60/ 9/ 13 1028.4 13E OREGON INLT 1948 53 N/A 4/ 6 3/ 6 HATTERAS CG 1936 65 110/ 9/ 13 1027.5 DIAMOND BUOY 1950 67 73 100/ 19/ 27 1027.5 7/ 7 CAPE LOOKOUT 1900 110/ 14/ 15 1027.0 BEAUFORT LAB 1936 66 63 110/ 14/ 17 1026.2 30 SE NEW RVR IN 1908 67 65 110/ 17/ 23 1025.4 30 SE NEW RVR IN 1930 65 N/A 8/ 7 27 SE WRIGHTSVLE 1908 67 65 120/ 21/ 29 1024.7 5 SE WRIGHTSVLE 1908 64 61 110/ 12/ 17 1024.4 225 S CAPE HAT 1950 69 72 100/ 21/ 25 1023.4 7/ 6 2/ 9 41 SE CHARLESTON 1950 67 67 110/ 29/ 37 1016.9 13/ 9 8/ 9 $$

USA.gov is the U.S. government's official web portal to all federal, state and local government web resources and services.